Location: Bottens
(46.6171°N, 6.6605°E)
Time: 19:31:37
(UTC+00:00)

CZ-4 R/B - Pass Details

Date: 20 June 2021
Orbit: 681 x 752 km, 98.5° (Epoch: 23 July)

Event Time Altitude Azimuth Distance (km) Brightness Sun altitude
Rises 00:44:36 0° 13° (NNE) 3,056 8.8 -18.2°
Reaches altitude 10° 00:46:50 10° 12° (NNE) 2,139 7.6 -18.1°
Maximum altitude 00:51:31 82° 285° (WNW) 701 3.7 -17.8°
Enters shadow 00:53:33 34° 202° (SSW) 1,131 4.3 -17.7°
